Weather History for 94664 - July, 2013

Change the Weather History Date:

Monday, July 22, 2013

  Actual Average Record
Temperature  
Mean Temperature 50 °F -  
Max Temperature 60 °F - - ()
Min Temperature 41 °F - - ()
Degree Days  
Heating Degree Days 14    
Moisture  
Dew Point 44 °F    
Average Humidity 83    
Maximum Humidity 100    
Minimum Humidity 48    
Precipitation  
Precipitation 0.00 in - - ()
Sea Level Pressure  
Sea Level Pressure 30.16 in    
Wind  
Wind Speed 9 mph ()    
Max Wind Speed 17 mph    
Max Gust Speed 29 mph    
Visibility 6.2 miles    
Events      
T = Trace of Precipitation, MM = Missing Value Source: Averaged Metar Reports

Daily Weather History Graph

Daily Weather History Graph

Search for Another Location

Airport or City:

Trip Planner

Search our weather history database for the weather conditions in past years. The results will help you decide how hot, cold, wet, or windy it might be!

Date:

Astronomy

Jul. 22, 2013 Rise Set
Actual Time 7:17 AM ACST 5:35 PM ACST
Civil Twilight 6:51 AM ACST 6:01 PM ACST
Nautical Twilight 6:20 AM ACST 6:32 PM ACST
Astronomical Twilight 5:51 AM ACST 7:01 PM ACST
Moon 5:12 PM ACST (7/22) 6:18 AM ACST (7/22)
Length of Visible Light 11h 10m
Length of Day
10h 17m
Waxing Gibbous, 99% of the Moon is Illuminated
Jul 22
Waxing Gibbous
Jul 23
Full
Jul 30
Last Quarter
Aug 7
New
Aug 14
First Quarter

Hourly Weather History & Observations

Time (ACST) Temp. Windchill Dew Point Humidity Pressure Visibility Wind Dir Wind Speed Gust Speed Precip Events Conditions
12:30 AM 44.6 °F 38.4 °F 42.8 °F 93% 30.04 in 6.2 mi NW 12.7 mph - N/A   Unknown
1:30 AM 44.6 °F 38.4 °F 42.8 °F 93% 30.04 in 6.2 mi WNW 12.7 mph - N/A   Unknown
2:30 AM 44.6 °F 38.8 °F 42.8 °F 93% 30.04 in 6.2 mi WNW 11.5 mph - N/A   Unknown
3:30 AM 41.0 °F 35.2 °F 41.0 °F 100% 30.06 in 6.2 mi NNW 9.2 mph - N/A   Unknown
4:30 AM 42.8 °F 38.0 °F 42.8 °F 100% 30.06 in 6.2 mi NW 8.1 mph - N/A   Overcast
5:30 AM 42.8 °F 41.1 °F 41.0 °F 93% 30.06 in 6.2 mi WNW 3.5 mph - N/A   Scattered Clouds
6:30 AM 41.0 °F 36.4 °F 39.2 °F 93% 30.09 in 6.2 mi North 6.9 mph - N/A   Unknown
7:30 AM 41.0 °F 35.8 °F 39.2 °F 93% 30.12 in 6.2 mi NW 8.1 mph - N/A   Scattered Clouds
8:30 AM 44.6 °F 40.2 °F 42.8 °F 93% 30.15 in 6.2 mi WNW 8.1 mph - N/A   Mostly Cloudy
9:30 AM 51.8 °F - 46.4 °F 82% 30.15 in 6.2 mi West 12.7 mph - N/A   Unknown
10:30 AM 55.4 °F - 46.4 °F 72% 30.15 in 6.2 mi West 16.1 mph - N/A   Unknown
11:30 AM 59.0 °F - 44.6 °F 59% 30.15 in 6.2 mi West 15.0 mph - N/A   Unknown
12:30 PM 59.0 °F - 42.8 °F 55% 30.15 in 6.2 mi SW 15.0 mph - N/A   Scattered Clouds
1:30 PM 60.8 °F - 42.8 °F 52% 30.15 in 6.2 mi WSW 17.3 mph - N/A   Scattered Clouds
2:30 PM 60.8 °F - 41.0 °F 48% 30.15 in 6.2 mi SW 15.0 mph - N/A   Scattered Clouds
3:30 PM 59.0 °F - 48.2 °F 67% 30.15 in 6.2 mi South 12.7 mph - N/A   Scattered Clouds
4:03 PM 57.2 °F - 50.0 °F 77% 30.18 in 6.2 mi South 17.3 mph 28.8 mph N/A   Mostly Cloudy
4:30 PM 55.4 °F - 48.2 °F 77% 30.18 in 6.2 mi South 10.4 mph - N/A   Scattered Clouds
5:30 PM 53.6 °F - 48.2 °F 82% 30.21 in 6.2 mi South 8.1 mph - N/A   Unknown
6:30 PM 50.0 °F - 46.4 °F 87% 30.24 in 6.2 mi WSW 5.8 mph - N/A   Unknown
7:30 PM 48.2 °F - 44.6 °F 87% 30.27 in 6.2 mi West 6.9 mph - N/A   Scattered Clouds
8:30 PM 46.4 °F 43.5 °F 44.6 °F 93% 30.30 in 6.2 mi West 5.8 mph - N/A   Scattered Clouds
9:30 PM 44.6 °F 40.7 °F 42.8 °F 93% 30.30 in 6.2 mi West 6.9 mph - N/A   Unknown
10:30 PM 42.8 °F 38.0 °F 42.8 °F 100% 30.33 in 6.2 mi NW 8.1 mph - N/A   Unknown
11:30 PM 42.8 °F 38.6 °F 41.0 °F 93% 30.33 in 6.2 mi NW 6.9 mph - N/A   Unknown